Dillon, MT

1:26 PM MDT on July 22, 2017 (GMT -0600)
Dillon

Weather History for KDLN - March, 2014

Change the Weather History Date:

Sunday, March 23, 2014

  Actual Average Record
Temperature  
Mean Temperature 33 °F 36 °F  
Max Temperature 45 °F 48 °F 71 °F (2004)
Min Temperature 21 °F 25 °F -8 °F (1964)
Degree Days  
Heating Degree Days 32    
Month to date heating degree days 706  
Since 1 July heating degree days 6486  
Cooling Degree Days 0    
Month to date cooling degree days 0  
Year to date cooling degree days 0  
Moisture  
Dew Point 10 °F    
Average Humidity 42    
Maximum Humidity 62    
Minimum Humidity 22    
Precipitation  
Precipitation 0.00 in 0.02 in 0.20 in (1974)
Month to date precipitation 0.23 0.36  
Year to date precipitation 0.46 0.88  
Snow  
Snow 0.00 in - - ()
Snow Depth 0.00 in    
Sea Level Pressure  
Sea Level Pressure 30.13 in    
Wind  
Wind Speed 11 mph (WSW)    
Max Wind Speed 26 mph    
Max Gust Speed 34 mph    
Visibility 10 miles    
Events      
T = Trace of Precipitation, MM = Missing Value Source: NWS Daily Summary

Daily Weather History Graph

Daily Weather History Graph

Search for Another Location

Airport or City:

Trip Planner

Search our weather history database for the weather conditions in past years. The results will help you decide how hot, cold, wet, or windy it might be!

Date:

Astronomy

Mar. 23, 2014 Rise Set
Actual Time 7:27 AM MDT 7:46 PM MDT
Civil Twilight 6:58 AM MDT 8:16 PM MDT
Nautical Twilight 6:23 AM MDT 8:51 PM MDT
Astronomical Twilight 5:47 AM MDT 9:26 PM MDT
Moon 2:20 AM MDT (3/23) 11:59 AM MDT (3/23)
Length of Visible Light 13h 18m
Length of Day
12h 19m
Waning Gibbous, 54% of the Moon is Illuminated
Mar 23
Waning Gibbous
Mar 23
Last Quarter
Mar 30
New
Apr 7
First Quarter
Apr 15
Full

Hourly Weather History & Observations

Time (MDT) Temp. Windchill Dew Point Humidity Pressure Visibility Wind Dir Wind Speed Gust Speed Precip Events Conditions
12:53 AM 21.9 °F 12.5 °F 10.0 °F 60% 30.19 in 10.0 mi SSE 8.1 mph - N/A   Clear
1:53 AM 21.9 °F 12.5 °F 10.0 °F 60% 30.16 in 10.0 mi SSE 8.1 mph - N/A   Clear
2:53 AM 24.1 °F 16.0 °F 10.9 °F 57% 30.14 in 10.0 mi SE 6.9 mph - N/A   Clear
3:53 AM 26.1 °F 17.6 °F 12.0 °F 55% 30.11 in 10.0 mi SSW 8.1 mph - N/A   Clear
4:53 AM 26.1 °F 19.4 °F 12.9 °F 58% 30.09 in 10.0 mi SSW 5.8 mph - N/A   Clear
5:53 AM 27.0 °F 16.7 °F 10.9 °F 51% 30.08 in 10.0 mi SSW 11.5 mph - N/A   Clear
6:53 AM 28.0 °F 16.5 °F 9.0 °F 45% 30.06 in 10.0 mi SSW 15.0 mph - N/A   Clear
7:53 AM 28.0 °F 17.5 °F 9.0 °F 45% 30.11 in 10.0 mi SSW 12.7 mph - N/A   Clear
8:53 AM 30.0 °F 19.5 °F 9.0 °F 41% 30.14 in 10.0 mi SSW 13.8 mph - N/A   Clear
9:53 AM 36.0 °F 27.1 °F 8.1 °F 31% 30.12 in 10.0 mi SW 13.8 mph 20.7 mph N/A   Mostly Cloudy
10:53 AM 37.0 °F 27.4 °F 10.0 °F 33% 30.12 in 10.0 mi West 17.3 mph 28.8 mph N/A   Partly Cloudy
11:53 AM 41.0 °F 31.4 °F 10.9 °F 29% 30.12 in 10.0 mi West 21.9 mph 29.9 mph N/A   Overcast
12:53 PM 42.1 °F 33.6 °F 10.9 °F 28% 30.14 in 10.0 mi West 18.4 mph 31.1 mph N/A   Overcast
1:34 PM 41.0 °F 35.2 °F 10.0 °F 28% 30.07 in 10.0 mi NNW 9.2 mph - N/A   Mostly Cloudy
1:53 PM 41.0 °F 35.2 °F 9.0 °F 27% 30.14 in 10.0 mi WNW 9.2 mph 16.1 mph N/A   Overcast
2:53 PM 44.1 °F 38.1 °F 10.9 °F 26% 30.11 in 10.0 mi NNW 11.5 mph 26.5 mph N/A   Partly Cloudy
3:53 PM 45.0 °F 37.1 °F 9.0 °F 23% 30.09 in 10.0 mi NW 19.6 mph 23.0 mph N/A   Clear
4:53 PM 44.1 °F 38.1 °F 9.0 °F 24% 30.09 in 10.0 mi NW 11.5 mph - N/A   Clear
5:53 PM 39.9 °F 33.9 °F 9.0 °F 28% 30.10 in 10.0 mi WNW 9.2 mph - N/A   Partly Cloudy
6:53 PM 41.0 °F 33.1 °F 10.0 °F 28% 30.11 in 10.0 mi NW 15.0 mph - N/A   Clear
7:53 PM 33.1 °F 24.9 °F 10.9 °F 40% 30.15 in 10.0 mi NNW 10.4 mph - N/A   Clear
8:53 PM 30.9 °F 24.3 °F 10.9 °F 43% 30.17 in 10.0 mi North 6.9 mph - N/A   Clear
9:53 PM 28.0 °F 22.8 °F 10.9 °F 49% 30.19 in 10.0 mi SE 4.6 mph - N/A   Clear
10:53 PM 32.0 °F 28.7 °F 10.9 °F 42% 30.19 in 10.0 mi NNW 3.5 mph - N/A   Clear
11:53 PM 26.1 °F 19.4 °F 12.0 °F 55% 30.20 in 10.0 mi SE 5.8 mph - N/A   Clear